Location: Bakov nad Jizerou
(50.4784°N, 14.9394°E)
Time: 06:59:32
(UTC+00:00)

Cosmos 1908 - Pass Details

Date: 16 June 2021
Orbit: 509 x 530 km, 82.5° (Epoch: 28 July)

Event Time Altitude Azimuth Distance (km) Brightness Sun altitude
Rises 20:45:08 0° 346° (NNW) 2,678 8.5 -10.3°
Reaches altitude 10° 20:47:20 10° 341° (NNW) 1,780 7.4 -10.4°
Maximum altitude 20:51:08 53° 264° (W) 649 3.8 -10.8°
Enters shadow 20:54:49 10° 188° (S) 1,726 5.4 -11.0°
